Weather History for KLWT - March, 2013

Change the Weather History Date:

Friday, March 1, 2013

  Actual Average Record
Temperature  
Mean Temperature 36 °F 28 °F  
Max Temperature 50 °F 39 °F 66 °F (1905)
Min Temperature 21 °F 18 °F -19 °F (2014)
Degree Days  
Heating Degree Days 29 37  
Month to date heating degree days 29 37  
Since 1 July heating degree days 5537 5841  
Cooling Degree Days 0 0  
Month to date cooling degree days 0 0  
Year to date cooling degree days 0 0  
Moisture  
Dew Point 28 °F    
Average Humidity 64    
Maximum Humidity 78    
Minimum Humidity 50    
Precipitation  
Precipitation 0.00 in 0.02 in 0.90 in (1902)
Month to date precipitation 0.00 0.02  
Year to date precipitation 1.80 1.03  
Snow  
Snow 0.00 in - - ()
Snow Depth T in    
Sea Level Pressure  
Sea Level Pressure 30.22 in    
Wind  
Wind Speed 11 mph (SW)    
Max Wind Speed 23 mph    
Max Gust Speed 29 mph    
Visibility 10 miles    
Events      
T = Trace of Precipitation, MM = Missing Value Source: NWS Daily Summary

Daily Weather History Graph

Daily Weather History Graph

Search for Another Location

Airport or City:

Trip Planner

Search our weather history database for the weather conditions in past years. The results will help you decide how hot, cold, wet, or windy it might be!

Date:

Astronomy

Mar. 01, 2013 Rise Set
Actual Time 6:57 AM MST 6:03 PM MST
Civil Twilight 6:26 AM MST 6:34 PM MST
Nautical Twilight 5:51 AM MST 7:09 PM MST
Astronomical Twilight 5:16 AM MST 7:45 PM MST
Moon 11:02 PM MST (3/1) 8:26 AM MST (3/1)
Length of Visible Light 12h 07m
Length of Day
11h 06m
Waning Gibbous, 83% of the Moon is Illuminated
Mar 1
Waning Gibbous
Mar 4
Last Quarter
Mar 11
New
Mar 19
First Quarter
Mar 27
Full

Hourly Weather History & Observations

Time (MST) Temp. Windchill Dew Point Humidity Pressure Visibility Wind Dir Wind Speed Gust Speed Precip Events Conditions
12:54 AM 21.9 °F 14.5 °F 16.0 °F 78% 30.27 in 10.0 mi ESE 5.8 mph - N/A   Clear
1:54 AM 25.0 °F - 17.1 °F 72% 30.25 in 10.0 mi Calm Calm - N/A   Clear
2:54 AM 26.1 °F 21.9 °F 19.0 °F 75% 30.25 in 10.0 mi Variable 3.5 mph - N/A   Partly Cloudy
3:54 AM 28.9 °F 18.6 °F 21.9 °F 75% 30.21 in 10.0 mi SSW 12.7 mph - N/A   Clear
4:54 AM 30.9 °F 21.2 °F 24.1 °F 76% 30.22 in 10.0 mi SW 12.7 mph - N/A   Clear
5:54 AM 35.1 °F 25.5 °F 27.0 °F 72% 30.23 in 10.0 mi SW 15.0 mph - N/A   Overcast
6:54 AM 36.0 °F 28.5 °F 28.9 °F 76% 30.22 in 10.0 mi SW 10.4 mph - N/A   Overcast
7:54 AM 37.9 °F 29.6 °F 30.0 °F 73% 30.24 in 10.0 mi WSW 13.8 mph - N/A   Overcast
8:54 AM 37.9 °F 32.1 °F 30.9 °F 76% 30.22 in 10.0 mi WSW 8.1 mph - N/A   Overcast
9:54 AM 39.0 °F 31.8 °F 30.9 °F 73% 30.23 in 10.0 mi WSW 11.5 mph - N/A   Mostly Cloudy
10:54 AM 41.0 °F 33.9 °F 32.0 °F 70% 30.22 in 10.0 mi SW 12.7 mph - N/A   Clear
12:54 PM 48.9 °F - 30.9 °F 50% 30.20 in 10.0 mi WNW 18.4 mph 27.6 mph N/A   Scattered Clouds
1:54 PM 48.9 °F - 30.9 °F 50% 30.18 in 10.0 mi WNW 12.7 mph 20.7 mph N/A   Clear
2:54 PM 48.9 °F - 32.0 °F 52% 30.18 in 10.0 mi WNW 17.3 mph - N/A   Clear
3:54 PM 45.0 °F 39.7 °F 33.1 °F 63% 30.20 in 10.0 mi SW 10.4 mph - N/A   Clear
4:54 PM 43.0 °F 38.8 °F 32.0 °F 65% 30.20 in 10.0 mi Variable 6.9 mph - N/A   Clear
5:54 PM 41.0 °F 34.3 °F 30.9 °F 67% 30.21 in 10.0 mi SSW 11.5 mph - N/A   Clear
6:54 PM 37.9 °F 30.0 °F 30.0 °F 73% 30.22 in 10.0 mi SW 12.7 mph - N/A   Clear
7:54 PM 39.0 °F 31.0 °F 30.0 °F 70% 30.20 in 10.0 mi SW 13.8 mph - N/A   Clear
8:54 PM 37.9 °F 30.0 °F 30.0 °F 73% 30.20 in 10.0 mi SW 12.7 mph - N/A   Clear
9:54 PM 42.1 °F 37.1 °F 30.0 °F 62% 30.20 in 10.0 mi WSW 8.1 mph - N/A   Clear
10:54 PM 39.0 °F 30.6 °F 30.0 °F 70% 30.20 in 10.0 mi SW 15.0 mph - N/A   Clear
11:54 PM 39.0 °F 30.6 °F 30.0 °F 70% 30.20 in 10.0 mi SW 15.0 mph - N/A   Clear